[[{"header":{"parameterUnit":"m.s-1","parameterCategory":1,"la1":30.2991,"la2":30.254,"lo1":-89.0895,"lo2":-89.0444,"dy":0.0017,"dx":0.0017,"nx":28,"ny":28,"refTime":"2025-04-13T21:00:00:Z","depth":0,"parameterNumber":2,"parameterNumberName":"U-component_of_WINDS"},"data":[0,0,0,0,0,0,0,0,0,0,0,0,0,0,0,0,0,0,0,0,0,0,0,0,0,0,0,0,0,0,0,0,0,0,0,0,0,0,0,0,0,0,0,0,0,0,0,0,0,0,0,0,0,0,0,0,0,0,3.1564,3.1565,0,3.1625,3.1625,3.1626,3.1619,3.1618,3.1618,3.1617,3.1679,3.1681,3.1684,0,0,0,0,0,0,0,0,0,0,0,0,0,3.1441,3.1444,3.1564,3.1565,3.1565,3.1625,3.1625,3.1626,3.162,3.1618,3.1617,3.1616,3.1678,3.1681,3.1684,0,0,0,0,0,0,0,0,0,0,0,0,0,3.1498,3.1444,3.1564,3.1569,3.157,3.1624,3.1625,3.1626,3.162,3.1618,3.1617,3.1616,3.1677,3.1681,3.1685,3.1737,0,0,3.1696,3.1698,0,0,0,0,0,0,0,0,3.1494,3.1502,3.1568,3.1569,3.157,3.1613,3.1605,3.1664,3.162,3.1601,3.1617,3.1615,3.1658,3.1663,3.1678,3.174,3.1743,3.1697,3.1699,3.1701,3.1702,0,0,0,0,0,0,0,3.149,3.1499,3.1588,3.1569,3.157,3.1568,3.1575,3.1616,3.1637,3.1603,3.1602,3.161,3.1659,3.1674,3.1679,3.1744,3.1697,3.17,3.1702,3.1704,3.1851,3.1852,0,0,0,0,0,0,3.1485,3.1496,3.1586,3.159,3.1528,3.1572,3.1579,3.1601,3.1637,3.1641,3.1611,3.1609,3.1669,3.1675,3.1682,3.1744,3.1701,3.1704,3.1706,3.1849,3.1851,3.1853,0,0,0,0,0,0,3.1483,3.1493,3.1584,3.1543,3.1554,3.1575,3.16,3.1603,3.1618,3.1643,3.1646,3.1623,3.1668,3.1676,3.1723,3.1747,3.1706,3.1709,3.1847,3.185,3.1852,3.1871,0,0,0,0,0,0,3.1479,3.1492,3.1513,3.1543,3.1556,3.1624,3.1601,3.1605,3.1625,3.1623,3.1655,3.1659,3.1667,3.1717,3.1727,3.1751,3.1712,3.1845,3.1848,3.1851,3.1868,3.1874,3.1878,0,0,0,0,0,3.1475,3.1516,3.1514,3.1525,3.1582,3.1626,3.1633,3.1642,3.1627,3.1647,3.1663,3.1658,3.1743,3.1722,3.1733,3.1759,3.1844,3.1847,3.1851,3.1866,3.1873,3.1878,0,0,0,0,0,0,3.1488,3.152,3.1518,3.1571,3.1595,3.1624,3.165,3.1648,3.1678,3.1675,3.1685,3.1692,3.1739,3.1754,3.173,3.1811,3.1791,3.1797,3.1799,3.1806,3.1811,3.1805,3.1716,0,0,0,0,0,3.1497,3.1529,3.1556,3.16,3.1612,3.1629,3.1648,3.1653,3.1679,3.1689,3.1708,3.1733,3.1766,3.1787,3.1818,3.1871,3.1877,3.1894,3.1899,3.1903,3.1907,3.1935,3.1943,3.1865,3.1865,3.1864,0,0,3.1516,3.1537,3.1557,3.1603,3.1622,3.1655,3.1638,3.1674,3.1698,3.1695,3.174,3.1755,3.1783,3.1833,3.1856,3.1847,3.193,3.1907,3.191,3.1913,3.194,3.1947,3.1954,3.1867,3.1867,3.1866,0,0,3.1566,3.1587,3.1625,3.1645,3.1675,3.1686,3.1695,3.1724,3.1734,3.1779,3.1777,3.1806,3.1862,3.1882,3.1899,3.1957,3.1954,3.1967,3.1993,3.202,3.2026,3.2032,3.2051,3.2058,3.1972,3.1972,3.1972,0,3.1586,3.1636,3.1644,3.168,3.17,3.1698,3.1736,3.1755,3.1794,3.1807,3.1797,3.1866,3.1885,3.1939,3.1953,3.1968,3.1978,3.1963,3.2025,3.203,3.2036,3.2054,3.2062,3.1974,3.1973,3.1973,3.1973,0,3.1657,3.1692,3.1719,3.1756,3.1779,3.1816,3.183,3.1852,3.1854,3.1866,3.1912,3.1935,3.197,3.1984,3.1987,3.2038,3.2031,3.2023,3.2003,3.2044,3.2062,3.2069,3.1976,3.1975,3.1975,3.1974,0,0,3.1718,3.1759,3.1768,3.1785,3.1818,3.1844,3.1881,3.1915,3.1933,3.196,3.199,3.2037,3.2029,3.2049,3.2055,3.2079,3.2121,3.2067,3.2068,3.2075,3.2178,3.2183,3.2191,3.212,3.2121,3.2122,3.2175,0,3.1771,3.1835,3.1844,3.1901,3.1933,3.1931,3.1963,3.1986,3.1999,3.2027,3.204,3.2073,3.2061,3.2072,3.2096,3.2111,3.2142,3.2108,3.2147,3.2148,3.2138,3.2201,3.2207,3.2255,3.2182,3.2183,3.2184,0,3.1841,3.1869,3.193,3.1957,3.1971,3.1999,3.2031,3.2058,3.2084,3.2091,3.2113,3.2115,3.2153,3.2132,3.2183,3.216,3.2176,3.2186,3.2188,3.2191,3.2168,3.2204,3.2271,3.2278,3.2195,3.2194,3.2194,0,3.1877,3.1931,3.1973,3.1987,3.2021,3.2041,3.2056,3.2081,3.21,3.2128,3.2141,3.2173,3.219,3.2214,3.2224,3.2209,3.2274,3.2255,3.2281,3.228,3.2294,3.2292,3.2363,3.2307,3.2306,3.2306,3.2306,0,3.1935,3.1971,3.199,3.2016,3.2056,3.2066,3.2106,3.212,3.2142,3.217,3.2172,3.2198,3.2211,3.2239,3.2248,3.2288,3.2296,3.2302,3.2304,3.2301,3.23,3.2312,3.2308,3.2308,3.2308,3.2307,3.2307,0,3.1982,3.1995,3.2041,3.207,3.2077,3.2106,3.213,3.2155,3.2167,3.2203,3.2212,3.223,3.2264,3.2277,3.2318,3.2323,3.2369,3.2369,3.236,3.236,3.2384,3.2381,3.2464,3.2474,3.2412,3.2413,3.2413,0,3.2017,3.2045,3.2076,3.2095,3.211,3.2141,3.2161,3.2172,3.2192,3.2224,3.2245,3.2278,3.2305,3.2359,3.2376,3.2407,3.2406,3.2433,3.2411,3.2407,3.2405,3.2403,3.2405,3.2437,3.2437,3.2438,3.2438,0,3.2077,3.2082,3.2111,3.2143,3.2166,3.2191,3.2216,3.2231,3.2246,3.2269,3.2303,3.2324,3.2365,3.2398,3.243,3.2445,3.2444,3.2445,3.2452,3.2449,3.2443,3.2445,3.237,3.2443,3.2442,3.2442,3.2442,3.2442,3.2118,3.2142,3.2168,3.22,3.2219,3.2242,3.2266,3.2281,3.231,3.2344,3.2349,3.2385,3.241,3.2453,3.2469,3.2497,3.249,3.2501,3.2503,3.2506,3.2506,3.2439,3.2503,3.2503,3.2503,3.2503,3.2503,0,3.2177,3.2194,3.2223,3.2257,3.2282,3.2279,3.2306,3.2326,3.2358,3.2382,3.2408,3.2447,3.2478,3.2498,3.2529,3.2548,3.2548,3.2556,3.2554,3.2557,3.2512,3.2502,3.2555,3.2555,3.2555,3.2555,3.2555,3.2555,3.2211,3.2252,3.226,3.231,3.2326,3.2361,3.2377,3.2397,3.2416,3.2459,3.2485,3.2497,3.2519,3.2552,3.2581,3.2586,3.2596,3.2605,3.2609,3.2566,3.256,3.2555,3.2546,3.2607,3.2607,3.2651,3.2652,3.2652]},{"header":{"parameterUnit":"m.s-1","parameterCategory":1,"la1":30.2991,"la2":30.254,"lo1":-89.0895,"lo2":-89.0444,"dy":0.0017,"dx":0.0017,"nx":28,"ny":28,"refTime":"2025-04-13T21:00:00:Z","depth":0,"parameterNumber":3,"parameterNumberName":"V-component_of_WINDS"},"data":[0,0,0,0,0,0,0,0,0,0,0,0,0,0,0,0,0,0,0,0,0,0,0,0,0,0,0,0,0,0,0,0,0,0,0,0,0,0,0,0,0,0,0,0,0,0,0,0,0,0,0,0,0,0,0,0,0,0,4.259,4.259,0,4.2575,4.2575,4.2575,4.2538,4.2537,4.2536,4.2535,4.2519,4.252,4.252,0,0,0,0,0,0,0,0,0,0,0,0,0,4.2586,4.2586,4.259,4.259,4.259,4.2575,4.2575,4.2575,4.2538,4.2537,4.2536,4.2535,4.2519,4.252,4.252,0,0,0,0,0,0,0,0,0,0,0,0,0,4.2581,4.2586,4.259,4.2569,4.2567,4.2575,4.2575,4.2575,4.2538,4.2537,4.2536,4.2535,4.2519,4.252,4.252,4.2546,0,0,4.2521,4.2522,0,0,0,0,0,0,0,0,4.2581,4.2581,4.2573,4.2571,4.2569,4.2557,4.2568,4.2565,4.2538,4.2549,4.2535,4.2534,4.2533,4.2532,4.2532,4.2546,4.2545,4.2521,4.2522,4.2522,4.2522,0,0,0,0,0,0,0,4.2582,4.2582,4.2584,4.2573,4.257,4.2561,4.2559,4.2567,4.2548,4.2548,4.2545,4.2544,4.2532,4.2532,4.2531,4.2545,4.2521,4.2522,4.2522,4.2522,4.258,4.2582,0,0,0,0,0,0,4.2585,4.2582,4.2585,4.2584,4.2572,4.2562,4.256,4.2562,4.2548,4.2544,4.2545,4.2543,4.2531,4.2531,4.2531,4.2561,4.2522,4.2522,4.2523,4.2579,4.2581,4.2582,0,0,0,0,0,0,4.2585,4.2586,4.2585,4.2582,4.2581,4.2563,4.2566,4.2562,4.2562,4.2545,4.2542,4.2549,4.253,4.253,4.2543,4.256,4.2523,4.2523,4.2578,4.258,4.2581,4.2622,0,0,0,0,0,0,4.2585,4.2586,4.2596,4.2583,4.2582,4.2598,4.2567,4.2563,4.2563,4.256,4.2548,4.2545,4.2529,4.2543,4.2544,4.256,4.2523,4.2576,4.2579,4.2581,4.2619,4.2625,4.263,0,0,0,0,0,4.2585,4.2607,4.2596,4.2597,4.2594,4.2599,4.2599,4.2581,4.2565,4.2575,4.2564,4.2545,4.2558,4.2544,4.2545,4.2562,4.2575,4.2578,4.2581,4.2617,4.2624,4.263,0,0,0,0,0,0,4.2622,4.2605,4.2593,4.2611,4.2607,4.2593,4.2604,4.2589,4.2589,4.2585,4.2563,4.2561,4.2577,4.2571,4.2556,4.2587,4.2564,4.2567,4.2591,4.2597,4.2603,4.2604,4.2524,0,0,0,0,0,4.2632,4.2638,4.2623,4.2641,4.264,4.2623,4.2624,4.2611,4.2606,4.2603,4.2594,4.2589,4.2592,4.2594,4.2596,4.2618,4.2615,4.263,4.2636,4.264,4.2643,4.2656,4.2662,4.2592,4.2592,4.2591,0,0,4.2653,4.2645,4.265,4.2648,4.2643,4.265,4.2621,4.2629,4.2634,4.2604,4.2617,4.261,4.2603,4.2621,4.2628,4.2616,4.2662,4.2644,4.2648,4.2648,4.2659,4.2666,4.2672,4.2593,4.2593,4.2593,0,0,4.2696,4.269,4.2704,4.2701,4.2694,4.2683,4.2686,4.2675,4.2669,4.2681,4.2659,4.2665,4.267,4.2667,4.2665,4.2708,4.2691,4.2709,4.2738,4.275,4.2756,4.2761,4.2777,4.2782,4.2712,4.2712,4.2712,0,4.2723,4.2732,4.2714,4.2724,4.2724,4.2698,4.2713,4.271,4.2704,4.2705,4.2691,4.2699,4.2692,4.271,4.272,4.272,4.2724,4.271,4.2757,4.2761,4.2766,4.278,4.2786,4.2715,4.2714,4.2714,4.2714,0,4.2766,4.2773,4.2786,4.2782,4.2783,4.2796,4.2779,4.2783,4.277,4.2761,4.2774,4.2765,4.2766,4.2769,4.2756,4.2785,4.2777,4.2761,4.2736,4.2775,4.2788,4.2794,4.2718,4.2717,4.2716,4.2716,0,0,4.283,4.2817,4.2822,4.282,4.2811,4.2817,4.2828,4.2829,4.2833,4.283,4.284,4.2846,4.2831,4.2829,4.2816,4.2827,4.2862,4.2809,4.2808,4.2819,4.2894,4.2907,4.2914,4.2851,4.2852,4.2852,4.2895,0,4.287,4.2889,4.2874,4.2896,4.2903,4.2879,4.2889,4.2885,4.2877,4.2882,4.2872,4.2877,4.2857,4.2856,4.2865,4.2856,4.2877,4.2852,4.2859,4.286,4.2862,4.2921,4.2934,4.2974,4.29,4.2901,4.2901,0,4.2919,4.292,4.2943,4.2934,4.2936,4.2946,4.2946,4.295,4.2946,4.2939,4.2939,4.2923,4.2934,4.2911,4.2926,4.291,4.2912,4.2908,4.2909,4.2909,4.2883,4.2922,4.2986,4.2992,4.2909,4.2909,4.2908,0,4.2964,4.297,4.2985,4.2984,4.2974,4.2982,4.2978,4.2972,4.2974,4.2974,4.2975,4.2977,4.2977,4.2979,4.2964,4.2948,4.2981,4.2956,4.2976,4.2977,4.2984,4.2984,4.3049,4.2985,4.2985,4.2985,4.2985,0,4.301,4.3025,4.3005,4.3015,4.3031,4.3014,4.303,4.3024,4.3019,4.3027,4.3007,4.3014,4.2994,4.3,4.2988,4.3003,4.3003,4.2998,4.2995,4.3,4.3001,4.3001,4.2998,4.2987,4.2986,4.2986,4.2986,0,4.3063,4.305,4.3065,4.3055,4.3053,4.3065,4.3057,4.3065,4.3056,4.3066,4.3067,4.3053,4.3059,4.3044,4.3047,4.304,4.3061,4.3053,4.3063,4.3061,4.3081,4.308,4.315,4.3158,4.3088,4.3089,4.309,0,4.3093,4.3105,4.3096,4.31,4.3098,4.3104,4.3107,4.309,4.3093,4.309,4.3098,4.3103,4.3105,4.3116,4.3105,4.3108,4.31,4.3125,4.31,4.3106,4.3101,4.3101,4.3102,4.3129,4.313,4.3131,4.3132,0,4.3149,4.3142,4.3146,4.3149,4.3153,4.3154,4.3153,4.3158,4.314,4.3144,4.3151,4.3153,4.3157,4.3161,4.3162,4.3158,4.3142,4.3139,4.3144,4.315,4.3155,4.3153,4.3077,4.3138,4.3137,4.3137,4.3136,4.3136,4.3191,4.3201,4.3197,4.3203,4.3201,4.3201,4.3209,4.3201,4.3206,4.3209,4.3199,4.3207,4.3203,4.3203,4.3201,4.3207,4.3196,4.3203,4.3205,4.3207,4.321,4.3154,4.3207,4.3207,4.3207,4.3207,4.3206,0,4.3246,4.3243,4.3248,4.3249,4.3254,4.3239,4.3238,4.3243,4.3251,4.3249,4.3253,4.326,4.3265,4.3256,4.3259,4.3267,4.3259,4.3268,4.3267,4.3267,4.322,4.3215,4.3274,4.3274,4.3274,4.3274,4.3274,4.3274,4.3275,4.3291,4.3284,4.3299,4.3295,4.3304,4.3305,4.3306,4.3304,4.3314,4.3318,4.3312,4.3308,4.3311,4.3315,4.3312,4.3314,4.3326,4.332,4.3277,4.327,4.3264,4.326,4.3326,4.3326,4.3367,4.3367,4.3368]}]]